sat.trackr.live / text

‹ back to catalog

EXPRESS 103

NORAD 45985 · 2020-053A

PAYLOAD ACTIVE UNKNOWN

§ Identity

Operator
Country
CIS
Launch date
2020-07-30
Launch site
TYMSC
Launch vehicle
Mass (kg)
RCS (m²)

Purposes: comms

External: N2YO · Heavens-Above · Gunter

§ Orbital elements

Epoch: 2026-09-19T22:33:41.655744Z

Period
1,436.08 min
Inclination
0.0376°
Eccentricity
0.0001277
Mean motion
1.00272629 rev/d
Perigee alt
35,781.0 km
Apogee alt
35,791.7 km
Semi-major
42,164.5 km
B*
0.0000e+0
RAAN
259.4495°
Arg perigee
200.4653°
Mean anomaly
333.8553°
Rev number
2,259

§ Raw data

EXPRESS 1031 45985U 20053A   26262.94006546 -.00000285  00000+0  00000+0 0  99972 45985   0.0376 259.4495 0001277 200.4653 333.8553  1.00272629 22591

JSON: /api/v1/satellites/45985 · /tle

For live sub-satellite position, see the globe view (requires WebGL).

§ Visibility from observer

Set your observer location to see the next 7 days of passes ≥ 10°. The values pass through the URL so the page stays shareable.

No JS? Fill the form by hand. The geolocation button needs JavaScript.